TimePST,TemperatureF,Dew PointF,Humidity,Sea Level PressureIn,VisibilityMPH,Wind Direction,Wind SpeedMPH,Gust SpeedMPH,PrecipitationIn,Events,Conditions,WindDirDegrees,DateUTC
12:07 AM,30.2,24.8,80,30.03,10.0,Variable,5.8,-,N/A,,Scattered Clouds,0,2013-02-17 08:07:00
12:15 AM,30.2,24.8,80,30.03,10.0,Variable,4.6,-,N/A,,Mostly Cloudy,0,2013-02-17 08:15:00
12:56 AM,30.9,24.1,76,30.08,10.0,Variable,4.6,-,N/A,,Overcast,0,2013-02-17 08:56:00
1:56 AM,30.0,24.1,79,30.10,10.0,Calm,Calm,-,N/A,,Overcast,0,2013-02-17 09:56:00
2:56 AM,30.0,24.1,79,30.10,10.0,Variable,4.6,-,N/A,,Overcast,0,2013-02-17 10:56:00
3:56 AM,30.0,24.1,79,30.10,10.0,Variable,4.6,-,N/A,,Overcast,0,2013-02-17 11:56:00
4:56 AM,28.9,23.0,78,30.12,10.0,Variable,4.6,-,N/A,,Overcast,0,2013-02-17 12:56:00
5:56 AM,28.9,23.0,78,30.11,10.0,Calm,Calm,-,N/A,,Overcast,0,2013-02-17 13:56:00
6:09 AM,28.4,21.2,74,30.04,10.0,Variable,4.6,-,N/A,,Mostly Cloudy,0,2013-02-17 14:09:00
6:56 AM,28.0,21.9,78,30.14,10.0,Variable,4.6,-,N/A,,Overcast,0,2013-02-17 14:56:00
7:56 AM,28.0,21.9,78,30.15,10.0,Calm,Calm,-,N/A,,Mostly Cloudy,0,2013-02-17 15:56:00
8:56 AM,30.9,21.9,69,30.15,10.0,Variable,3.5,-,N/A,,Clear,0,2013-02-17 16:56:00
9:56 AM,32.0,21.9,66,30.15,10.0,Variable,3.5,-,N/A,,Mostly Cloudy,0,2013-02-17 17:56:00
10:56 AM,33.1,21.9,64,30.16,10.0,Calm,Calm,-,N/A,,Overcast,0,2013-02-17 18:56:00
11:56 AM,33.1,23.0,66,30.17,10.0,Calm,Calm,-,N/A,,Overcast,0,2013-02-17 19:56:00
12:34 PM,33.8,21.2,60,30.08,10.0,Variable,4.6,-,N/A,,Overcast,0,2013-02-17 20:34:00
12:56 PM,34.0,21.9,61,30.14,10.0,Calm,Calm,-,N/A,,Overcast,0,2013-02-17 20:56:00
1:56 PM,35.1,21.0,57,30.13,10.0,WNW,5.8,-,N/A,,Overcast,290,2013-02-17 21:56:00
2:56 PM,36.0,21.0,55,30.12,10.0,Calm,Calm,-,N/A,,Overcast,0,2013-02-17 22:56:00
3:56 PM,36.0,21.0,55,30.12,10.0,Calm,Calm,-,N/A,,Mostly Cloudy,0,2013-02-17 23:56:00
4:56 PM,33.1,19.9,59,30.12,10.0,Calm,Calm,-,N/A,,Scattered Clouds,0,2013-02-18 00:56:00
5:56 PM,28.0,21.0,75,30.13,10.0,Calm,Calm,-,N/A,,Mostly Cloudy,0,2013-02-18 01:56:00
6:56 PM,27.0,21.0,78,30.14,10.0,Calm,Calm,-,N/A,,Mostly Cloudy,0,2013-02-18 02:56:00
7:56 PM,25.0,19.9,81,30.13,10.0,Calm,Calm,-,N/A,,Clear,0,2013-02-18 03:56:00
8:56 PM,23.0,19.0,85,30.14,10.0,Calm,Calm,-,N/A,,Clear,0,2013-02-18 04:56:00
9:56 PM,21.0,18.0,88,30.12,10.0,Calm,Calm,-,N/A,,Clear,0,2013-02-18 05:56:00
10:56 PM,19.9,17.1,89,30.12,10.0,Calm,Calm,-,N/A,,Clear,0,2013-02-18 06:56:00
11:56 PM,18.0,15.1,88,30.11,10.0,Calm,Calm,-,N/A,,Clear,0,2013-02-18 07:56:00